• In Russia
  • List of Countries
  • For 7 days
  • Water Temperature
  • Satellite Maps
  • Weather Map
  • Weather Widgets
  • user-avatar
    Login

    Hourly Weather Wlora

    Today, 17 January, Wednesday

    Time Temperature Precipitation Wind Pressure Humidity
    00:00 +9°C° 0 mm 5 mps 760 mmHg 91%
    01:00 +9°C° 0 mm 6 mps 759 mmHg 92%
    02:00 +9°C° 0 mm 6 mps 758 mmHg 92%
    03:00 +9°C° 0 mm 6 mps 758 mmHg 92%
    04:00 +9°C° 0 mm 6 mps 757 mmHg 93%
    05:00 +9°C° 0.1 mm 6 mps 757 mmHg 92%
    06:00 +9°C° 0.1 mm 7 mps 756 mmHg 91%
    07:00 +10°C° 0 mm 8 mps 755 mmHg 90%
    08:00 +10°C° 0 mm 8 mps 755 mmHg 88%
    09:00 +11°C° 0 mm 9 mps 755 mmHg 86%
    10:00 +11°C° 0 mm 9 mps 754 mmHg 84%
    11:00 +12°C° 0.2 mm 10 mps 754 mmHg 85%
    12:00 +12°C° 0.2 mm 10 mps 753 mmHg 86%
    13:00 +13°C° 0.2 mm 11 mps 752 mmHg 87%
    14:00 +13°C° 0.6 mm 11 mps 751 mmHg 85%
    15:00 +13°C° 0.6 mm 11 mps 751 mmHg 84%
    16:00 +13°C° 0.6 mm 12 mps 750 mmHg 83%
    17:00 +12°C° 0.6 mm 12 mps 750 mmHg 83%
    18:00 +12°C° 0.6 mm 13 mps 750 mmHg 83%
    19:00 +10°C° 0.6 mm 13 mps 750 mmHg 84%
    20:00 +9°C° 0.2 mm 14 mps 751 mmHg 80%
    21:00 +9°C° 0.2 mm 15 mps 752 mmHg 76%
    22:00 +9°C° 0.2 mm 15 mps 752 mmHg 72%
    23:00 +7°C° 0.1 mm 16 mps 753 mmHg 70%

    Tomorrow, 18 January, Thursday

    Time Temperature Precipitation Wind Pressure Humidity
    00:00 +6°C° 0.1 mm 16 mps 754 mmHg 68%
    01:00 +6°C° 0.1 mm 17 mps 756 mmHg 66%
    02:00 +5°C° 0 mm 17 mps 757 mmHg 65%
    03:00 +4°C° 0 mm 16 mps 757 mmHg 65%
    04:00 +2°C° 0 mm 16 mps 758 mmHg 65%
    05:00 +2°C° 0 mm 15 mps 759 mmHg 64%
    06:00 +1°C° 0 mm 13 mps 760 mmHg 63%
    07:00 0°C° 0 mm 12 mps 761 mmHg 62%
    08:00 +3°C° 0 mm 12 mps 762 mmHg 57%
    09:00 +4°C° 0 mm 11 mps 763 mmHg 52%
    10:00 +6°C° 0 mm 11 mps 763 mmHg 47%
    11:00 +7°C° 0 mm 10 mps 764 mmHg 45%
    12:00 +8°C° 0 mm 10 mps 764 mmHg 44%
    13:00 +8°C° 0 mm 10 mps 764 mmHg 43%
    14:00 +8°C° 0 mm 9 mps 764 mmHg 48%
    15:00 +7°C° 0 mm 8 mps 764 mmHg 53%
    16:00 +8°C° 0 mm 7 mps 764 mmHg 57%
    17:00 +7°C° 0 mm 6 mps 764 mmHg 57%
    18:00 +6°C° 0 mm 4 mps 765 mmHg 57%
    19:00 +5°C° 0 mm 3 mps 765 mmHg 57%
    20:00 +5°C° 0 mm 3 mps 765 mmHg 58%
    21:00 +5°C° 0 mm 3 mps 765 mmHg 58%
    22:00 +5°C° 0 mm 3 mps 765 mmHg 58%
    23:00 +5°C° 0 mm 4 mps 765 mmHg 61%

    Day after tomorrow, 19 January, Friday

    Time Temperature Precipitation Wind Pressure Humidity
    00:00 +5°C° 0 mm 4 mps 765 mmHg 63%
    01:00 +5°C° 0 mm 5 mps 765 mmHg 66%
    02:00 +5°C° 0 mm 5 mps 764 mmHg 67%
    03:00 +4°C° 0 mm 6 mps 764 mmHg 68%
    04:00 +4°C° 0 mm 6 mps 763 mmHg 69%
    05:00 +4°C° 0 mm 6 mps 763 mmHg 69%
    06:00 +4°C° 0 mm 6 mps 763 mmHg 68%
    07:00 +4°C° 0 mm 6 mps 763 mmHg 68%
    08:00 +7°C° 0 mm 6 mps 763 mmHg 68%
    09:00 +8°C° 0 mm 6 mps 763 mmHg 67%
    10:00 +10°C° 0 mm 6 mps 763 mmHg 67%
    11:00 +10°C° 0 mm 7 mps 763 mmHg 69%
    12:00 +11°C° 0 mm 7 mps 762 mmHg 71%
    13:00 +11°C° 0 mm 7 mps 761 mmHg 73%
    14:00 +11°C° 0 mm 7 mps 761 mmHg 76%
    15:00 +11°C° 0 mm 7 mps 761 mmHg 79%
    16:00 +10°C° 0 mm 7 mps 761 mmHg 82%
    17:00 +9°C° 0 mm 7 mps 761 mmHg 85%
    18:00 +9°C° 0 mm 7 mps 761 mmHg 87%
    19:00 +7°C° 0 mm 8 mps 761 mmHg 89%
    20:00 +7°C° 0 mm 8 mps 761 mmHg 90%
    21:00 +7°C° 0 mm 8 mps 761 mmHg 91%
    22:00 +7°C° 0 mm 8 mps 761 mmHg 91%
    23:00 +7°C° 0 mm 8 mps 761 mmHg 92%

    20 January, Saturday

    Time Temperature Precipitation Wind Pressure Humidity
    00:00 +7°C° 0 mm 8 mps 760 mmHg 92%
    01:00 +9°C° 0 mm 8 mps 760 mmHg 92%
    02:00 +9°C° 0 mm 7 mps 760 mmHg 93%
    03:00 +9°C° 0 mm 7 mps 760 mmHg 93%
    04:00 +9°C° 0 mm 7 mps 759 mmHg 93%
    05:00 +9°C° 0 mm 7 mps 759 mmHg 93%
    06:00 +9°C° 0 mm 7 mps 759 mmHg 93%
    07:00 +9°C° 0 mm 7 mps 758 mmHg 92%
    08:00 +10°C° 0.2 mm 7 mps 758 mmHg 91%
    09:00 +11°C° 0.2 mm 7 mps 758 mmHg 90%
    10:00 +11°C° 0.2 mm 7 mps 758 mmHg 88%
    11:00 +12°C° 0.2 mm 7 mps 758 mmHg 85%
    12:00 +12°C° 0.2 mm 7 mps 757 mmHg 83%
    13:00 +14°C° 0.2 mm 6 mps 757 mmHg 80%
    14:00 +13°C° 0.3 mm 5 mps 757 mmHg 82%
    15:00 +13°C° 0.3 mm 5 mps 757 mmHg 84%
    16:00 +12°C° 0.3 mm 4 mps 757 mmHg 86%
    17:00 +12°C° 0.2 mm 3 mps 757 mmHg 87%
    18:00 +11°C° 0.2 mm 3 mps 757 mmHg 89%
    19:00 +10°C° 0.2 mm 3 mps 758 mmHg 91%
    20:00 +10°C° 0.1 mm 3 mps 758 mmHg 90%
    21:00 +10°C° 0.1 mm 2 mps 758 mmHg 89%
    22:00 +10°C° 0.1 mm 2 mps 758 mmHg 88%
    23:00 +9°C° 0 mm 2 mps 758 mmHg 88%

    21 January, Sunday

    Time Temperature Precipitation Wind Pressure Humidity
    00:00 +10°C° 0 mm 1 mps 758 mmHg 89%
    01:00 +10°C° 0 mm 1 mps 758 mmHg 89%
    02:00 +10°C° 0.1 mm 1 mps 757 mmHg 88%
    03:00 +10°C° 0.1 mm 1 mps 757 mmHg 88%
    04:00 +10°C° 0.1 mm 1 mps 756 mmHg 87%
    05:00 +9°C° 0.1 mm 2 mps 756 mmHg 87%
    06:00 +9°C° 0.1 mm 3 mps 756 mmHg 87%
    07:00 +8°C° 0.1 mm 4 mps 755 mmHg 86%
    08:00 +9°C° 0.2 mm 5 mps 755 mmHg 85%
    09:00 +10°C° 0.2 mm 5 mps 754 mmHg 84%
    10:00 +10°C° 0.2 mm 6 mps 754 mmHg 82%
    11:00 +10°C° 0.6 mm 6 mps 753 mmHg 83%
    12:00 +10°C° 0.6 mm 7 mps 752 mmHg 84%
    13:00 +10°C° 0.6 mm 8 mps 751 mmHg 84%
    14:00 +10°C° 3.6 mm 8 mps 751 mmHg 86%
    15:00 +9°C° 3.6 mm 7 mps 751 mmHg 88%
    16:00 +9°C° 3.6 mm 7 mps 751 mmHg 89%
    17:00 +9°C° 2.8 mm 7 mps 752 mmHg 87%
    18:00 +7°C° 2.8 mm 8 mps 752 mmHg 84%
    19:00 +7°C° 2.8 mm 9 mps 753 mmHg 81%
    20:00 +7°C° 1.6 mm 9 mps 753 mmHg 80%
    21:00 +6°C° 1.6 mm 9 mps 754 mmHg 79%
    22:00 +6°C° 1.6 mm 10 mps 755 mmHg 77%
    23:00 +6°C° 0.2 mm 10 mps 755 mmHg 76%

    22 January, Monday

    Time Temperature Precipitation Wind Pressure Humidity
    00:00 +5°C° 0.2 mm 9 mps 756 mmHg 75%
    01:00 +5°C° 0.2 mm 9 mps 757 mmHg 74%
    02:00 +5°C° 0 mm 9 mps 757 mmHg 73%
    03:00 +5°C° 0 mm 9 mps 758 mmHg 73%
    04:00 +3°C° 0 mm 9 mps 758 mmHg 73%
    05:00 +3°C° 0 mm 9 mps 759 mmHg 73%
    06:00 +3°C° 0 mm 9 mps 759 mmHg 73%
    07:00 +2°C° 0 mm 10 mps 760 mmHg 73%
    08:00 +3°C° 0 mm 9 mps 761 mmHg 68%
    09:00 +5°C° 0 mm 9 mps 761 mmHg 63%
    10:00 +6°C° 0 mm 8 mps 762 mmHg 58%
    11:00 +7°C° 0 mm 8 mps 762 mmHg 55%
    12:00 +7°C° 0 mm 8 mps 762 mmHg 52%
    13:00 +9°C° 0 mm 8 mps 762 mmHg 49%
    14:00 +9°C° 0 mm 8 mps 763 mmHg 53%
    15:00 +9°C° 0 mm 8 mps 763 mmHg 57%
    16:00 +7°C° 0 mm 8 mps 763 mmHg 62%
    17:00 +6°C° 0 mm 8 mps 763 mmHg 64%
    18:00 +6°C° 0 mm 7 mps 764 mmHg 67%
    19:00 +5°C° 0 mm 6 mps 764 mmHg 69%
    20:00 +5°C° 0 mm 6 mps 764 mmHg 69%
    21:00 +5°C° 0 mm 5 mps 765 mmHg 69%
    22:00 +5°C° 0 mm 5 mps 765 mmHg 69%
    23:00 +5°C° 0 mm 5 mps 765 mmHg 69%
    Show more